Time,TemperatureF,DewpointF,PressureIn,WindDirection,WindDirectionDegrees,WindSpeedMPH,WindSpeedGustMPH,Humidity,HourlyPrecipIn,Conditions,Clouds,dailyrainin,SoftwareType,DateUTC
2013-03-27 00:03:00,30.9,28.3,29.71,NNE,30,3.1,4.5,90,0.00,,,0.00,VWS V12.08,2013-03-26 23:03:00,
2013-03-27 00:08:00,30.9,28.6,29.71,NE,37,2.7,4.5,91,0.00,,,0.00,VWS V12.08,2013-03-26 23:08:00,
2013-03-27 00:13:00,30.9,28.6,29.71,NE,42,3.1,4.0,91,0.00,,,0.00,VWS V12.08,2013-03-26 23:13:00,
2013-03-27 00:18:00,30.9,28.6,29.71,NE,34,3.1,4.0,91,0.00,,,0.00,VWS V12.08,2013-03-26 23:18:00,
2013-03-27 00:23:00,30.9,28.6,29.71,North,10,2.7,4.9,91,0.00,,,0.00,VWS V12.08,2013-03-26 23:23:00,
2013-03-27 00:28:00,30.9,28.6,29.71,NE,42,3.6,5.4,91,0.00,,,0.00,VWS V12.08,2013-03-26 23:28:00,
2013-03-27 00:33:00,30.7,28.4,29.71,NE,42,4.0,4.9,91,0.00,,,0.00,VWS V12.08,2013-03-26 23:33:00,
2013-03-27 00:38:00,30.7,28.4,29.71,NNE,28,3.6,5.4,91,0.00,,,0.00,VWS V12.08,2013-03-26 23:38:00,
2013-03-27 00:43:00,30.7,28.4,29.71,NNE,31,4.0,5.4,91,0.00,,,0.00,VWS V12.08,2013-03-26 23:43:00,
2013-03-27 00:48:00,30.7,28.4,29.71,NNE,31,3.1,6.3,91,0.00,,,0.00,VWS V12.08,2013-03-26 23:48:00,
2013-03-27 00:53:00,30.7,28.4,29.71,North,10,3.1,5.4,91,0.00,,,0.00,VWS V12.08,2013-03-26 23:53:00,
2013-03-27 00:58:00,30.7,28.4,29.71,NE,41,3.6,5.4,91,0.00,,,0.00,VWS V12.08,2013-03-26 23:58:00,
2013-03-27 01:03:00,30.7,28.4,29.71,NNE,15,4.0,4.9,91,0.00,,,0.00,VWS V12.08,2013-03-27 00:03:00,
2013-03-27 01:08:00,30.7,28.4,29.71,NE,36,5.8,8.1,91,0.00,,,0.00,VWS V12.08,2013-03-27 00:08:00,
2013-03-27 01:13:00,30.7,28.4,29.71,NE,43,2.7,5.8,91,0.00,,,0.00,VWS V12.08,2013-03-27 00:13:00,
2013-03-27 01:18:00,30.7,28.4,29.71,NE,36,3.6,7.2,91,0.00,,,0.00,VWS V12.08,2013-03-27 00:18:00,
2013-03-27 01:23:00,30.7,28.4,29.71,NNE,33,5.4,6.3,91,0.00,,,0.00,VWS V12.08,2013-03-27 00:23:00,
2013-03-27 01:28:00,30.7,28.4,29.71,NNE,25,3.1,6.3,91,0.00,,,0.00,VWS V12.08,2013-03-27 00:28:00,
2013-03-27 01:33:00,30.7,28.4,29.71,NNE,25,2.7,6.3,91,0.00,,,0.00,VWS V12.08,2013-03-27 00:33:00,
2013-03-27 01:38:00,30.7,28.4,29.71,NE,37,5.4,6.3,91,0.00,,,0.00,VWS V12.08,2013-03-27 00:38:00,
2013-03-27 01:43:00,30.6,28.2,29.71,North,10,4.0,6.3,91,0.00,,,0.00,VWS V12.08,2013-03-27 00:43:00,
2013-03-27 01:48:00,30.6,28.2,29.71,NNE,12,2.2,6.3,91,0.00,,,0.00,VWS V12.08,2013-03-27 00:48:00,
2013-03-27 01:53:00,30.6,28.2,29.71,NNE,18,3.6,5.8,91,0.00,,,0.00,VWS V12.08,2013-03-27 00:53:00,
2013-03-27 01:58:00,30.6,28.2,29.71,NNE,18,4.0,6.3,91,0.00,,,0.00,VWS V12.08,2013-03-27 00:58:00,
2013-03-27 02:03:00,30.6,28.2,29.71,NNE,16,4.0,6.3,91,0.00,,,0.00,VWS V12.08,2013-03-27 01:03:00,
2013-03-27 02:08:00,30.6,28.2,29.71,NNE,20,3.1,6.3,91,0.00,,,0.00,VWS V12.08,2013-03-27 01:08:00,
2013-03-27 02:13:00,30.6,28.2,29.71,NNE,20,4.0,6.3,91,0.00,,,0.00,VWS V12.08,2013-03-27 01:13:00,
2013-03-27 02:18:00,30.6,28.2,29.71,North,3,3.6,6.3,91,0.00,,,0.00,VWS V12.08,2013-03-27 01:18:00,
2013-03-27 02:23:00,30.6,28.2,29.71,North,6,3.1,4.0,91,0.00,,,0.00,VWS V12.08,2013-03-27 01:23:00,
2013-03-27 02:28:00,30.6,28.2,29.71,North,357,3.6,4.0,91,0.00,,,0.00,VWS V12.08,2013-03-27 01:28:00,
2013-03-27 02:33:00,30.6,28.5,29.71,North,0,3.1,4.5,92,0.00,,,0.00,VWS V12.08,2013-03-27 01:33:00,
2013-03-27 02:38:00,30.6,28.5,29.71,North,0,0.0,4.5,92,0.00,,,0.00,VWS V12.08,2013-03-27 01:38:00,
2013-03-27 02:43:00,30.6,28.5,29.71,North,0,2.7,3.1,92,0.00,,,0.00,VWS V12.08,2013-03-27 01:43:00,
2013-03-27 02:48:00,30.6,28.5,29.74,North,0,0.0,3.6,92,0.00,,,0.00,VWS V12.08,2013-03-27 01:48:00,
2013-03-27 02:53:00,30.4,28.3,29.74,North,0,0.0,0.0,92,0.00,,,0.00,VWS V12.08,2013-03-27 01:53:00,
2013-03-27 02:58:00,30.4,28.3,29.74,North,0,0.0,2.2,92,0.00,,,0.00,VWS V12.08,2013-03-27 01:58:00,
2013-03-27 03:03:00,30.4,28.3,29.71,North,6,0.0,2.2,92,0.00,,,0.00,VWS V12.08,2013-03-27 02:03:00,
2013-03-27 03:08:00,30.4,28.3,29.71,North,6,2.7,2.7,92,0.00,,,0.00,VWS V12.08,2013-03-27 02:08:00,
2013-03-27 03:13:00,30.4,28.3,29.71,North,4,3.6,3.6,92,0.00,,,0.00,VWS V12.08,2013-03-27 02:13:00,
2013-03-27 03:18:00,30.4,28.3,29.71,North,4,0.0,3.6,92,0.00,,,0.00,VWS V12.08,2013-03-27 02:18:00,
2013-03-27 03:23:00,30.4,28.3,29.71,North,4,2.2,2.7,92,0.00,,,0.00,VWS V12.08,2013-03-27 02:23:00,
2013-03-27 03:28:00,30.4,28.3,29.71,North,4,0.0,2.7,92,0.00,,,0.00,VWS V12.08,2013-03-27 02:28:00,
2013-03-27 03:33:00,30.4,28.3,29.71,North,5,0.0,3.6,92,0.00,,,0.00,VWS V12.08,2013-03-27 02:33:00,
2013-03-27 03:38:00,30.4,28.3,29.71,NNE,15,3.1,3.6,92,0.00,,,0.00,VWS V12.08,2013-03-27 02:38:00,
2013-03-27 03:43:00,30.4,28.3,29.71,NNE,15,2.7,3.1,92,0.00,,,0.00,VWS V12.08,2013-03-27 02:43:00,
2013-03-27 03:48:00,30.2,28.2,29.71,NNE,15,2.2,3.6,92,0.00,,,0.00,VWS V12.08,2013-03-27 02:48:00,
2013-03-27 03:53:00,30.2,28.2,29.71,NNE,14,0.0,3.1,92,0.00,,,0.00,VWS V12.08,2013-03-27 02:53:00,
2013-03-27 03:58:00,30.2,28.2,29.71,NNE,17,2.7,3.6,92,0.00,,,0.00,VWS V12.08,2013-03-27 02:58:00,
2013-03-27 04:03:00,30.2,28.2,29.71,NNE,23,2.7,3.6,92,0.00,,,0.00,VWS V12.08,2013-03-27 03:03:00,
2013-03-27 04:08:00,30.2,28.2,29.71,North,0,2.7,4.0,92,0.00,,,0.00,VWS V12.08,2013-03-27 03:08:00,
2013-03-27 04:13:00,30.2,28.2,29.71,NNE,19,3.6,3.6,92,0.00,,,0.00,VWS V12.08,2013-03-27 03:13:00,
2013-03-27 04:18:00,30.2,28.2,29.74,NNE,17,0.0,4.0,92,0.00,,,0.00,VWS V12.08,2013-03-27 03:18:00,
2013-03-27 04:23:00,30.2,28.2,29.74,NNE,28,3.6,3.6,92,0.00,,,0.00,VWS V12.08,2013-03-27 03:23:00,
2013-03-27 04:28:00,30.2,28.2,29.74,NNE,14,2.7,4.0,92,0.00,,,0.00,VWS V12.08,2013-03-27 03:28:00,
2013-03-27 04:33:00,30.2,28.2,29.74,NNE,29,3.6,4.9,92,0.00,,,0.00,VWS V12.08,2013-03-27 03:33:00,
2013-03-27 04:38:00,30.2,28.2,29.74,North,4,2.7,4.9,92,0.00,,,0.00,VWS V12.08,2013-03-27 03:38:00,
2013-03-27 04:43:00,30.2,28.2,29.74,North,9,0.0,3.1,92,0.00,,,0.00,VWS V12.08,2013-03-27 03:43:00,
2013-03-27 04:48:00,30.2,28.2,29.74,North,9,0.0,3.6,92,0.00,,,0.00,VWS V12.08,2013-03-27 03:48:00,
2013-03-27 04:53:00,30.2,28.2,29.74,NE,41,2.7,4.0,92,0.00,,,0.00,VWS V12.08,2013-03-27 03:53:00,
2013-03-27 04:58:00,30.2,28.2,29.74,NE,45,3.6,4.0,92,0.00,,,0.00,VWS V12.08,2013-03-27 03:58:00,
2013-03-27 05:00:00,30.2,28.2,29.74,NE,36,3.1,5.4,92,0.00,,,0.00,VWS V12.08,2013-03-27 04:00:00,
2013-03-27 05:05:00,30.2,28.2,29.74,NNE,33,2.7,6.3,92,0.00,,,0.00,VWS V12.08,2013-03-27 04:05:00,
2013-03-27 05:10:00,30.2,28.4,29.74,NE,49,3.6,4.0,93,0.00,,,0.00,VWS V12.08,2013-03-27 04:10:00,
2013-03-27 05:15:00,30.2,28.4,29.74,NE,44,3.6,5.4,93,0.00,,,0.00,VWS V12.08,2013-03-27 04:15:00,
2013-03-27 05:20:00,30.2,28.4,29.74,NNE,33,3.6,4.5,93,0.00,,,0.00,VWS V12.08,2013-03-27 04:20:00,
2013-03-27 05:25:00,30.2,28.4,29.74,NE,42,4.0,6.3,93,0.00,,,0.00,VWS V12.08,2013-03-27 04:25:00,
2013-03-27 05:30:00,30.2,28.4,29.74,NE,51,5.4,5.4,93,0.00,,,0.00,VWS V12.08,2013-03-27 04:30:00,
2013-03-27 05:35:00,30.2,28.4,29.74,NNE,19,4.0,6.3,93,0.00,,,0.00,VWS V12.08,2013-03-27 04:35:00,
2013-03-27 05:40:00,30.2,28.4,29.74,NNE,18,6.3,6.3,93,0.00,,,0.00,VWS V12.08,2013-03-27 04:40:00,
2013-03-27 05:45:00,30.2,28.4,29.74,NE,42,5.4,6.3,93,0.00,,,0.00,VWS V12.08,2013-03-27 04:45:00,
2013-03-27 05:50:00,30.2,28.4,29.74,NNE,21,4.9,5.8,93,0.00,,,0.00,VWS V12.08,2013-03-27 04:50:00,
2013-03-27 05:55:00,30.2,28.4,29.74,NE,48,5.4,7.2,93,0.00,,,0.00,VWS V12.08,2013-03-27 04:55:00,
2013-03-27 06:00:00,30.2,28.4,29.74,NE,39,4.0,5.8,93,0.00,,,0.00,VWS V12.08,2013-03-27 05:00:00,
2013-03-27 06:05:00,30.2,28.4,29.74,NNE,33,3.6,6.3,93,0.00,,,0.00,VWS V12.08,2013-03-27 05:05:00,
2013-03-27 06:10:00,30.2,28.4,29.74,NE,45,5.8,5.8,93,0.00,,,0.00,VWS V12.08,2013-03-27 05:10:00,
2013-03-27 06:15:00,30.2,28.4,29.74,NNE,12,3.6,8.3,93,0.00,,,0.00,VWS V12.08,2013-03-27 05:15:00,
2013-03-27 06:20:00,30.4,28.3,29.74,NNE,26,4.0,5.4,92,0.00,,,0.00,VWS V12.08,2013-03-27 05:20:00,
2013-03-27 06:25:00,30.4,28.3,29.74,NNE,31,6.3,7.6,92,0.00,,,0.00,VWS V12.08,2013-03-27 05:25:00,
2013-03-27 06:30:00,30.4,28.6,29.74,ENE,57,3.1,6.3,93,0.00,,,0.00,VWS V12.08,2013-03-27 05:30:00,
2013-03-27 06:35:00,30.6,28.8,29.74,NNE,24,6.3,8.7,93,0.00,,,0.00,VWS V12.08,2013-03-27 05:35:00,
2013-03-27 06:40:00,30.6,28.8,29.74,NE,42,5.8,9.6,93,0.00,,,0.00,VWS V12.08,2013-03-27 05:40:00,
2013-03-27 06:45:00,30.7,29.0,29.74,NNE,27,5.8,9.6,93,0.00,,,0.00,VWS V12.08,2013-03-27 05:45:00,
2013-03-27 06:50:00,30.7,29.0,29.74,ENE,61,3.6,8.3,93,0.00,,,0.00,VWS V12.08,2013-03-27 05:50:00,
2013-03-27 06:55:00,30.9,29.1,29.74,NE,41,3.6,8.3,93,0.00,,,0.00,VWS V12.08,2013-03-27 05:55:00,
2013-03-27 07:00:00,30.9,29.1,29.74,NNE,31,3.1,6.3,93,0.00,,,0.00,VWS V12.08,2013-03-27 06:00:00,
2013-03-27 07:05:00,30.9,29.1,29.74,ENE,64,5.4,8.1,93,0.00,,,0.00,VWS V12.08,2013-03-27 06:05:00,
2013-03-27 07:10:00,31.1,29.3,29.74,North,0,3.1,5.8,93,0.00,,,0.00,VWS V12.08,2013-03-27 06:10:00,